| time (UTC) | temp F | wind direction | speed knots | gust knots | rain 1hr in | rain 24hr in | rain mn in | humidity % | barometer mb |
| 20260902162006 | 73 | 212 | 0.0 | 0.0 | 0.00 | 0.41 | 0.00 | 96 | 1020.9 |
| 20260902160008 | 73 | 182 | 0.0 | 3.5 | 0.00 | 0.41 | 0.00 | 96 | 1020.9 |
| 20260902155504 | 73 | 182 | 0.9 | 3.5 | 0.00 | 0.41 | 0.00 | 96 | 1020.8 |
| 20260902155006 | 73 | 53 | 0.0 | 2.6 | 0.00 | 0.41 | 0.00 | 96 | 1020.7 |
| 20260902154006 | 72 | 220 | 0.0 | 2.6 | 0.00 | 0.41 | 0.00 | 97 | 1020.7 |
| 20260902153504 | 72 | 220 | 0.9 | 2.6 | 0.00 | 0.41 | 0.00 | 96 | 1020.7 |
| 20260902153006 | 72 | 218 | 0.0 | 0.9 | 0.00 | 0.41 | 0.00 | 97 | 1020.7 |
| 20260902152504 | 72 | 218 | 0.0 | 0.9 | 0.00 | 0.41 | 0.00 | 97 | 1020.8 |
| 20260902151504 | 72 | 218 | 0.0 | 1.7 | 0.00 | 0.41 | 0.00 | 96 | 1021.0 |
| 20260902150507 | 72 | 218 | 0.9 | 1.7 | 0.00 | 0.41 | 0.00 | 97 | 1021.0 |
| 20260902150010 | 72 | 218 | 0.0 | 1.7 | 0.00 | 0.41 | 0.00 | 97 | 1021.1 |
| 20260902145006 | 72 | 169 | 0.9 | 2.6 | 0.00 | 0.41 | 0.00 | 98 | 1021.2 |
| 20260902144504 | 71 | 169 | 0.9 | 3.5 | 0.00 | 0.41 | 0.00 | 98 | 1021.2 |
| 20260902144008 | 71 | 187 | 0.9 | 5.2 | 0.00 | 0.41 | 0.00 | 97 | 1021.1 |
| 20260902143006 | 71 | 54 | 0.0 | 3.5 | 0.00 | 0.41 | 0.00 | 98 | 1020.9 |
| 20260902142506 | 71 | 177 | 0.0 | 4.3 | 0.00 | 0.41 | 0.00 | 98 | 1020.7 |
| 20260902142006 | 71 | 182 | 0.9 | 4.3 | 0.00 | 0.41 | 0.00 | 98 | 1020.5 |
| 20260902141007 | 71 | 324 | 0.0 | 4.3 | 0.00 | 0.41 | 0.00 | 99 | 1020.7 |
| 20260902140504 | 71 | 179 | 0.9 | 4.3 | 0.00 | 0.41 | 0.00 | 99 | 1020.7 |
| 20260902140009 | 71 | 182 | 0.9 | 2.6 | 0.00 | 0.41 | 0.00 | 99 | 1020.7 |
| 20260902135504 | 71 | 236 | 0.9 | 2.6 | 0.00 | 0.41 | 0.00 | 99 | 1020.7 |
| 20260902135009 | 71 | 234 | 0.0 | 3.5 | 0.00 | 0.41 | 0.00 | 99 | 1020.8 |
| 20260902134505 | 71 | 51 | 0.0 | 3.5 | 0.00 | 0.41 | 0.00 | 98 | 1020.7 |
| 20260902134006 | 71 | 187 | 0.9 | 2.6 | 0.00 | 0.41 | 0.00 | 98 | 1020.8 |
| 20260902133007 | 71 | 92 | 0.0 | 2.6 | 0.00 | 0.41 | 0.00 | 98 | 1020.6 |
| 20260902132504 | 71 | 187 | 0.9 | 2.6 | 0.00 | 0.41 | 0.00 | 99 | 1020.4 |
| 20260902132006 | 71 | 200 | 0.9 | 2.6 | 0.00 | 0.41 | 0.00 | 99 | 1020.4 |
| 20260902131505 | 71 | 198 | 0.0 | 4.3 | 0.00 | 0.41 | 0.00 | 99 | 1020.4 |
| 20260902131007 | 71 | 174 | 1.7 | 4.3 | 0.00 | 0.41 | 0.00 | 98 | 1020.5 |
| 20260902130503 | 71 | 200 | 0.9 | 3.5 | 0.00 | 0.41 | 0.00 | 98 | 1020.5 |
| 20260902130009 | 71 | 176 | 1.7 | 3.5 | 0.00 | 0.41 | 0.00 | 98 | 1020.4 |
| 20260902125504 | 71 | 190 | 0.9 | 1.7 | 0.00 | 0.41 | 0.00 | 98 | 1020.4 |
| 20260902125005 | 71 | 176 | 0.0 | 3.5 | 0.00 | 0.41 | 0.00 | 98 | 1020.3 |
| 20260902124505 | 71 | 176 | 0.9 | 3.5 | 0.00 | 0.41 | 0.00 | 98 | 1020.3 |
| 20260902123507 | 71 | 169 | 0.9 | 4.3 | 0.00 | 0.41 | 0.00 | 98 | 1020.4 |
| 20260902123007 | 71 | 157 | 0.0 | 2.6 | 0.00 | 0.41 | 0.00 | 98 | 1020.3 |
| 20260902122504 | 70 | 156 | 0.9 | 2.6 | 0.00 | 0.41 | 0.00 | 98 | 1020.2 |
| 20260902122006 | 70 | 186 | 0.0 | 4.3 | 0.00 | 0.41 | 0.00 | 98 | 1020.0 |
| 20260902121505 | 70 | 174 | 0.9 | 4.3 | 0.00 | 0.41 | 0.00 | 98 | 1019.9 |
| 20260902120007 | 70 | 193 | 0.0 | 2.6 | 0.00 | 0.41 | 0.00 | 98 | 1019.9 |
| 20260902115503 | 70 | 222 | 0.0 | 3.5 | 0.00 | 0.41 | 0.00 | 98 | 1019.8 |
| 20260902114503 | 70 | 184 | 0.9 | 2.6 | 0.00 | 0.41 | 0.00 | 98 | 1019.7 |
| 20260902114005 | 70 | 201 | 0.0 | 1.7 | 0.00 | 0.41 | 0.00 | 98 | 1020.0 |
| 20260902113504 | 70 | 201 | 0.0 | 1.7 | 0.00 | 0.41 | 0.00 | 98 | 1020.1 |
| 20260902113005 | 70 | 201 | 0.0 | 2.6 | 0.00 | 0.41 | 0.00 | 98 | 1020.2 |
| 20260902112503 | 70 | 204 | 0.9 | 1.7 | 0.00 | 0.41 | 0.00 | 98 | 1020.1 |
| 20260902112005 | 70 | 204 | 0.0 | 0.9 | 0.00 | 0.41 | 0.00 | 98 | 1020.0 |
| 20260902111503 | 70 | 204 | 0.0 | 0.9 | 0.00 | 0.41 | 0.00 | 98 | 1020.0 |
| 20260902110504 | 70 | 204 | 0.0 | 1.7 | 0.00 | 0.41 | 0.00 | 98 | 1020.0 |
| 20260902110007 | 70 | 204 | 0.0 | 0.9 | 0.00 | 0.41 | 0.00 | 98 | 1019.8 |
| 20260902105006 | 70 | 203 | 0.0 | 0.9 | 0.00 | 0.41 | 0.00 | 98 | 1019.8 |
| 20260902104504 | 70 | 203 | 0.0 | 0.9 | 0.00 | 0.41 | 0.00 | 98 | 1019.8 |
| 20260902104004 | 70 | 203 | 0.0 | 1.7 | 0.00 | 0.41 | 0.00 | 98 | 1019.7 |
| 20260902103505 | 70 | 203 | 0.0 | 2.6 | 0.00 | 0.41 | 0.00 | 98 | 1019.8 |
| 20260902103005 | 71 | 214 | 0.9 | 1.7 | 0.00 | 0.41 | 0.00 | 98 | 1019.9 |
| 20260902101504 | 71 | 188 | 0.0 | 2.6 | 0.00 | 0.41 | 0.00 | 98 | 1019.7 |
| 20260902101004 | 71 | 188 | 0.9 | 2.6 | 0.00 | 0.41 | 0.00 | 98 | 1019.7 |
| 20260902100505 | 71 | 178 | 0.0 | 1.7 | 0.00 | 0.41 | 0.00 | 98 | 1019.7 |
| 20260902100006 | 71 | 178 | 0.9 | 1.7 | 0.00 | 0.41 | 0.00 | 98 | 1019.7 |
| 20260902095503 | 71 | 53 | 0.0 | 1.7 | 0.00 | 0.41 | 0.00 | 98 | 1019.6 |
| 20260902094503 | 71 | 227 | 0.0 | 1.7 | 0.00 | 0.41 | 0.00 | 98 | 1019.6 |
| 20260902093503 | 71 | 227 | 0.0 | 1.7 | 0.00 | 0.41 | 0.00 | 98 | 1019.5 |
| 20260902092504 | 71 | 227 | 0.0 | 1.7 | 0.00 | 0.41 | 0.00 | 98 | 1019.4 |
| 20260902092005 | 71 | 138 | 0.0 | 0.9 | 0.00 | 0.41 | 0.00 | 98 | 1019.4 |
| 20260902091506 | 72 | 49 | 0.0 | 0.9 | 0.00 | 0.41 | 0.00 | 98 | 1019.3 |
| 20260902091005 | 72 | 172 | 0.0 | 0.9 | 0.00 | 0.41 | 0.00 | 98 | 1019.2 |
| 20260902090503 | 72 | 172 | 0.0 | 0.9 | 0.00 | 0.41 | 0.00 | 98 | 1019.1 |
| 20260902090005 | 72 | 172 | 0.0 | 0.9 | 0.00 | 0.41 | 0.00 | 98 | 1019.1 |
| 20260902085504 | 72 | 172 | 0.0 | 0.9 | 0.00 | 0.41 | 0.00 | 98 | 1019.1 |
| 20260902085004 | 72 | 172 | 0.0 | 1.7 | 0.00 | 0.41 | 0.00 | 98 | 1019.1 |
| 20260902083503 | 72 | 159 | 0.0 | 1.7 | 0.00 | 0.41 | 0.00 | 98 | 1019.0 |
| 20260902083008 | 72 | 159 | 0.0 | 2.6 | 0.00 | 0.41 | 0.00 | 98 | 1018.9 |
| 20260902082505 | 72 | 159 | 0.9 | 3.5 | 0.00 | 0.41 | 0.00 | 98 | 1018.8 |
| 20260902082005 | 72 | 155 | 0.9 | 4.3 | 0.00 | 0.41 | 0.00 | 98 | 1018.8 |
| 20260902081503 | 72 | 194 | 0.9 | 3.5 | 0.00 | 0.41 | 0.00 | 98 | 1018.8 |
| 20260902075505 | 72 | 290 | 0.0 | 0.0 | 0.00 | 0.41 | 0.00 | 98 | 1018.7 |
| 20260902075005 | 72 | 291 | 0.0 | 0.0 | 0.00 | 0.41 | 0.00 | 98 | 1018.7 |
| 20260902074503 | 72 | 290 | 0.0 | 0.0 | 0.00 | 0.41 | 0.00 | 98 | 1018.8 |
| 20260902074006 | 72 | 291 | 0.0 | 0.0 | 0.00 | 0.41 | 0.00 | 98 | 1018.7 |
| 20260902073005 | 72 | 291 | 0.0 | 0.0 | 0.00 | 0.41 | 0.00 | 98 | 1018.5 |
| 20260902072503 | 72 | 291 | 0.0 | 0.0 | 0.00 | 0.41 | 0.00 | 98 | 1018.4 |
| 20260902072007 | 72 | 291 | 0.0 | 0.0 | 0.00 | 0.41 | 0.00 | 98 | 1018.3 |
| 20260902071004 | 72 | 291 | 0.0 | 0.0 | 0.00 | 0.41 | 0.00 | 98 | 1018.4 |
| 20260902070503 | 72 | 291 | 0.0 | 0.0 | 0.00 | 0.41 | 0.00 | 98 | 1018.3 |
| 20260902070008 | 72 | 291 | 0.0 | 0.0 | 0.00 | 0.41 | 0.00 | 97 | 1018.3 |
| 20260902065503 | 72 | 291 | 0.0 | 0.0 | 0.00 | 0.41 | 0.00 | 97 | 1018.2 |
| 20260902065005 | 72 | 291 | 0.0 | 0.0 | 0.00 | 0.41 | 0.00 | 97 | 1018.2 |
| 20260902064504 | 72 | 291 | 0.0 | 0.0 | 0.00 | 0.41 | 0.00 | 97 | 1018.2 |
| 20260902063004 | 72 | 291 | 0.0 | 0.0 | 0.00 | 0.41 | 0.00 | 97 | 1018.1 |
| 20260902062503 | 72 | 291 | 0.0 | 0.0 | 0.00 | 0.41 | 0.00 | 97 | 1018.0 |
| 20260902062004 | 72 | 291 | 0.0 | 0.0 | 0.00 | 0.41 | 0.00 | 97 | 1017.9 |
| 20260902061502 | 72 | 291 | 0.0 | 0.0 | 0.00 | 0.41 | 0.00 | 97 | 1018.0 |
| 20260902060503 | 72 | 291 | 0.0 | 0.0 | 0.00 | 0.41 | 0.00 | 97 | 1017.6 |
| 20260902060005 | 72 | 291 | 0.0 | 0.0 | 0.00 | 0.41 | 0.00 | 97 | 1017.7 |
| 20260902055503 | 72 | 291 | 0.0 | 0.0 | 0.00 | 0.41 | 0.00 | 97 | 1017.8 |
| 20260902055005 | 72 | 291 | 0.0 | 0.0 | 0.00 | 0.41 | 0.00 | 97 | 1017.8 |
| 20260902054502 | 73 | 290 | 0.0 | 0.0 | 0.00 | 0.41 | 0.00 | 97 | 1018.1 |
| 20260902054005 | 73 | 290 | 0.0 | 0.0 | 0.00 | 0.41 | 0.00 | 97 | 1018.2 |
| 20260902053503 | 73 | 290 | 0.0 | 0.0 | 0.00 | 0.41 | 0.00 | 97 | 1018.2 |
| 20260902052503 | 73 | 290 | 0.0 | 0.0 | 0.00 | 0.41 | 0.00 | 97 | 1018.4 |
| 20260902052004 | 73 | 290 | 0.0 | 0.0 | 0.00 | 0.41 | 0.00 | 97 | 1018.5 |
| 20260902051505 | 73 | 290 | 0.0 | 0.0 | 0.00 | 0.41 | 0.00 | 97 | 1018.5 |
| 20260902051003 | 73 | 290 | 0.0 | 0.0 | 0.00 | 0.41 | 0.00 | 97 | 1018.5 |
| 20260902050503 | 73 | 290 | 0.0 | 0.0 | 0.00 | 0.41 | 0.00 | 97 | 1018.4 |
| 20260902050008 | 73 | 290 | 0.0 | 0.0 | 0.00 | 0.41 | 0.00 | 97 | 1018.4 |
| 20260902045502 | 73 | 290 | 0.0 | 0.0 | 0.00 | 0.41 | 0.00 | 97 | 1018.5 |
| 20260902045005 | 73 | 290 | 0.0 | 0.0 | 0.00 | 0.41 | 0.00 | 97 | 1018.5 |
| 20260902044504 | 73 | 290 | 0.0 | 0.0 | 0.00 | 0.41 | 0.00 | 97 | 1018.5 |
| 20260902043502 | 73 | 290 | 0.0 | 0.0 | 0.00 | 0.41 | 0.00 | 97 | 1018.3 |
| 20260902043005 | 73 | 290 | 0.0 | 0.0 | 0.00 | 0.41 | 0.00 | 97 | 1018.2 |
| 20260902042502 | 73 | 290 | 0.0 | 0.0 | 0.00 | 0.41 | 0.00 | 97 | 1018.2 |
| 20260902042006 | 73 | 290 | 0.0 | 0.0 | 0.00 | 0.41 | 0.00 | 97 | 1018.3 |
| 20260902041506 | 73 | 290 | 0.0 | 0.0 | 0.00 | 0.41 | 0.00 | 97 | 1018.4 |
| 20260902041006 | 73 | 290 | 0.0 | 0.0 | 0.00 | 0.41 | 0.00 | 97 | 1018.3 |
| 20260902035504 | 73 | 290 | 0.0 | 0.0 | 0.00 | 0.41 | 0.41 | 97 | 1018.0 |
| 20260902035005 | 73 | 290 | 0.0 | 0.0 | 0.00 | 0.41 | 0.41 | 97 | 1018.1 |
| 20260902034507 | 73 | 290 | 0.0 | 0.0 | 0.00 | 0.41 | 0.41 | 97 | 1017.9 |
| 20260902034006 | 73 | 290 | 0.0 | 0.0 | 0.01 | 0.41 | 0.41 | 96 | 1017.8 |
| 20260902033007 | 73 | 290 | 0.0 | 0.0 | 0.01 | 0.41 | 0.41 | 96 | 1017.6 |
| 20260902032505 | 73 | 290 | 0.0 | 0.0 | 0.01 | 0.41 | 0.41 | 96 | 1017.6 |
| 20260902032006 | 73 | 290 | 0.0 | 0.0 | 0.01 | 0.41 | 0.41 | 96 | 1017.5 |
| 20260902031006 | 73 | 290 | 0.0 | 0.0 | 0.01 | 0.41 | 0.41 | 96 | 1017.8 |
| 20260902030505 | 73 | 290 | 0.0 | 0.0 | 0.01 | 0.41 | 0.41 | 96 | 1017.6 |
| 20260902030009 | 73 | 290 | 0.0 | 0.0 | 0.01 | 0.41 | 0.41 | 96 | 1017.3 |
| 20260902025504 | 73 | 290 | 0.0 | 0.0 | 0.01 | 0.41 | 0.41 | 96 | 1016.9 |
| 20260902025009 | 73 | 290 | 0.0 | 0.0 | 0.01 | 0.41 | 0.41 | 96 | 1016.8 |
| 20260902024506 | 73 | 290 | 0.0 | 0.0 | 0.01 | 0.41 | 0.41 | 96 | 1016.9 |
| 20260902023505 | 73 | 290 | 0.0 | 0.0 | 0.00 | 0.40 | 0.40 | 95 | 1017.0 |
| 20260902023008 | 73 | 290 | 0.0 | 0.0 | 0.00 | 0.40 | 0.40 | 95 | 1017.2 |
| 20260902022505 | 73 | 290 | 0.0 | 0.9 | 0.00 | 0.40 | 0.40 | 95 | 1017.5 |
| 20260902022006 | 73 | 290 | 0.0 | 0.9 | 0.00 | 0.40 | 0.40 | 95 | 1017.4 |
| 20260902021006 | 73 | 290 | 0.0 | 0.0 | 0.00 | 0.40 | 0.40 | 95 | 1017.1 |
| 20260902020510 | 73 | 290 | 0.0 | 0.0 | 0.00 | 0.40 | 0.40 | 94 | 1016.9 |
| 20260902015507 | 73 | 290 | 0.0 | 0.0 | 0.00 | 0.40 | 0.40 | 94 | 1016.4 |
| 20260902015007 | 73 | 290 | 0.0 | 0.0 | 0.01 | 0.40 | 0.40 | 94 | 1016.2 |
| 20260902014506 | 73 | 290 | 0.0 | 0.0 | 0.01 | 0.40 | 0.40 | 94 | 1016.2 |
| 20260902013512 | 73 | 290 | 0.0 | 0.9 | 0.17 | 0.40 | 0.40 | 93 | 1016.4 |
| 20260902013006 | 74 | 290 | 0.0 | 1.7 | 0.31 | 0.40 | 0.40 | 93 | 1016.5 |
| 20260902012507 | 74 | 290 | 0.9 | 1.7 | 0.33 | 0.40 | 0.40 | 93 | 1015.9 |
| 20260902012007 | 74 | 51 | 0.0 | 0.0 | 0.38 | 0.40 | 0.40 | 93 | 1015.4 |
| 20260902011505 | 74 | 51 | 0.0 | 2.6 | 0.40 | 0.40 | 0.40 | 92 | 1015.1 |
| 20260902011008 | 74 | 51 | 0.0 | 2.6 | 0.40 | 0.40 | 0.40 | 92 | 1015.3 |
| 20260902010506 | 75 | 171 | 0.0 | 1.7 | 0.40 | 0.40 | 0.40 | 91 | 1015.5 |
| 20260902010009 | 75 | 171 | 0.0 | 3.5 | 0.40 | 0.40 | 0.40 | 91 | 1015.7 |
| 20260902005505 | 75 | 175 | 1.7 | 7.0 | 0.40 | 0.40 | 0.40 | 90 | 1015.4 |
| 20260902005008 | 76 | 298 | 0.9 | 7.0 | 0.39 | 0.39 | 0.39 | 89 | 1015.7 |
| 20260902004504 | 77 | 279 | 1.7 | 7.8 | 0.39 | 0.39 | 0.39 | 88 | 1015.7 |
| 20260902004006 | 78 | 355 | 3.5 | 7.8 | 0.33 | 0.33 | 0.33 | 87 | 1016.2 |
| 20260902003006 | 82 | 321 | 3.5 | 5.2 | 0.09 | 0.09 | 0.09 | 90 | 1015.7 |
| 20260902002504 | 82 | 308 | 0.9 | 5.2 | 0.06 | 0.06 | 0.06 | 90 | 1014.5 |
| 20260902002007 | 83 | 332 | 2.6 | 5.2 | 0.02 | 0.02 | 0.02 | 90 | 1014.6 |
| 20260902001506 | 83 | 163 | 0.0 | 0.0 | 0.00 | 0.00 | 0.00 | 90 | 1014.5 |
| 20260902000505 | 83 | 163 | 0.0 | 1.7 | 0.00 | 0.00 | 0.00 | 90 | 1014.2 |
| 20260901235504 | 83 | 337 | 0.0 | 0.0 | 0.00 | 0.00 | 0.00 | 90 | 1014.3 |
| 20260901235007 | 83 | 337 | 0.0 | 0.0 | 0.00 | 0.00 | 0.00 | 90 | 1013.7 |
| 20260901234505 | 83 | 337 | 0.0 | 0.0 | 0.00 | 0.00 | 0.00 | 90 | 1013.8 |
| 20260901234005 | 83 | 337 | 0.0 | 0.0 | 0.00 | 0.00 | 0.00 | 90 | 1013.6 |
| 20260901233506 | 83 | 337 | 0.0 | 0.0 | 0.00 | 0.00 | 0.00 | 89 | 1013.7 |
| 20260901233005 | 83 | 337 | 0.0 | 0.0 | 0.00 | 0.00 | 0.00 | 89 | 1013.8 |
| 20260901232504 | 83 | 337 | 0.0 | 0.0 | 0.00 | 0.00 | 0.00 | 88 | 1014.2 |
| 20260901232006 | 84 | 337 | 0.0 | 0.0 | 0.00 | 0.00 | 0.00 | 88 | 1014.2 |
| 20260901231504 | 85 | 337 | 0.0 | 0.0 | 0.00 | 0.00 | 0.00 | 87 | 1014.2 |
| 20260901231006 | 85 | 337 | 0.0 | 0.0 | 0.00 | 0.00 | 0.00 | 86 | 1014.3 |
| 20260901230504 | 85 | 337 | 0.0 | 0.0 | 0.00 | 0.00 | 0.00 | 86 | 1014.2 |
| 20260901230008 | 85 | 337 | 0.0 | 0.0 | 0.00 | 0.00 | 0.00 | 86 | 1014.4 |
| 20260901225504 | 86 | 337 | 0.0 | 0.0 | 0.00 | 0.00 | 0.00 | 84 | 1014.3 |
| 20260901225004 | 86 | 337 | 0.0 | 0.0 | 0.00 | 0.00 | 0.00 | 83 | 1014.4 |
| 20260901224505 | 87 | 337 | 0.0 | 1.7 | 0.00 | 0.00 | 0.00 | 82 | 1014.2 |
| 20260901224005 | 86 | 337 | 0.0 | 0.9 | 0.00 | 0.00 | 0.00 | 81 | 1014.4 |
| 20260901223006 | 86 | 337 | 0.0 | 0.0 | 0.00 | 0.00 | 0.00 | 84 | 1014.3 |
| 20260901222506 | 86 | 337 | 0.0 | 0.0 | 0.00 | 0.00 | 0.00 | 82 | 1014.2 |
| 20260901222005 | 86 | 337 | 0.0 | 0.0 | 0.00 | 0.00 | 0.00 | 81 | 1014.2 |
| 20260901221505 | 86 | 337 | 0.0 | 0.0 | 0.00 | 0.00 | 0.00 | 81 | 1014.3 |
| 20260901221005 | 87 | 337 | 0.0 | 0.0 | 0.00 | 0.00 | 0.00 | 80 | 1014.3 |
| 20260901220504 | 87 | 337 | 0.0 | 0.0 | 0.00 | 0.00 | 0.00 | 78 | 1014.2 |
| 20260901220009 | 87 | 337 | 0.0 | 1.7 | 0.00 | 0.00 | 0.00 | 78 | 1014.1 |
| 20260901215504 | 87 | 337 | 0.0 | 1.7 | 0.00 | 0.00 | 0.00 | 78 | 1014.3 |
| 20260901215005 | 87 | 337 | 0.0 | 1.7 | 0.00 | 0.00 | 0.00 | 77 | 1014.5 |
| 20260901214506 | 87 | 337 | 0.9 | 2.6 | 0.00 | 0.00 | 0.00 | 77 | 1014.5 |
| 20260901214004 | 88 | 304 | 0.0 | 4.3 | 0.00 | 0.00 | 0.00 | 76 | 1014.6 |
| 20260901213504 | 89 | 140 | 0.0 | 2.6 | 0.00 | 0.00 | 0.00 | 77 | 1014.6 |
| 20260901212005 | 89 | 209 | 0.0 | 2.6 | 0.00 | 0.00 | 0.00 | 75 | 1014.5 |
| 20260901211505 | 89 | 177 | 0.9 | 2.6 | 0.00 | 0.00 | 0.00 | 73 | 1014.5 |
| 20260901211005 | 89 | 242 | 0.9 | 2.6 | 0.00 | 0.00 | 0.00 | 74 | 1014.5 |
| 20260901210504 | 89 | 161 | 0.9 | 5.2 | 0.00 | 0.00 | 0.00 | 73 | 1014.5 |
| 20260901205503 | 89 | 296 | 0.9 | 3.5 | 0.00 | 0.00 | 0.00 | 73 | 1014.5 |
| 20260901204005 | 90 | 24 | 1.7 | 4.3 | 0.00 | 0.00 | 0.00 | 72 | 1014.5 |
| 20260901203504 | 90 | 300 | 1.7 | 7.0 | 0.00 | 0.00 | 0.00 | 72 | 1014.6 |
| 20260901202504 | 89 | 206 | 1.7 | 4.3 | 0.00 | 0.00 | 0.00 | 73 | 1014.7 |
| 20260901202004 | 90 | 240 | 1.7 | 4.3 | 0.00 | 0.00 | 0.00 | 74 | 1014.7 |
| 20260901201503 | 89 | 288 | 0.9 | 4.3 | 0.00 | 0.00 | 0.00 | 74 | 1014.6 |
| 20260901200504 | 89 | 291 | 2.6 | 6.1 | 0.00 | 0.00 | 0.00 | 72 | 1014.7 |
| 20260901200006 | 89 | 175 | 0.9 | 7.0 | 0.00 | 0.00 | 0.00 | 73 | 1014.7 |
| 20260901195505 | 89 | 324 | 3.5 | 7.0 | 0.00 | 0.00 | 0.00 | 72 | 1014.8 |
| 20260901195006 | 89 | 296 | 2.6 | 6.1 | 0.00 | 0.00 | 0.00 | 73 | 1014.7 |
| 20260901194504 | 89 | 202 | 1.7 | 5.2 | 0.00 | 0.00 | 0.00 | 73 | 1014.8 |
| 20260901194007 | 89 | 269 | 1.7 | 5.2 | 0.00 | 0.00 | 0.00 | 74 | 1014.9 |
| 20260901193505 | 89 | 159 | 1.7 | 5.2 | 0.00 | 0.00 | 0.00 | 73 | 1015.0 |
| 20260901193006 | 89 | 267 | 0.9 | 4.3 | 0.00 | 0.00 | 0.00 | 74 | 1014.9 |
| 20260901192507 | 89 | 203 | 1.7 | 6.1 | 0.00 | 0.00 | 0.00 | 74 | 1015.2 |
| 20260901191506 | 89 | 215 | 0.9 | 4.3 | 0.00 | 0.00 | 0.00 | 73 | 1015.5 |
| 20260901190505 | 89 | 191 | 1.7 | 6.1 | 0.00 | 0.00 | 0.00 | 74 | 1015.2 |
| 20260901190006 | 88 | 302 | 2.6 | 6.1 | 0.00 | 0.00 | 0.00 | 73 | 1015.2 |
| 20260901185506 | 89 | 191 | 0.9 | 3.5 | 0.00 | 0.00 | 0.00 | 74 | 1015.4 |
| 20260901185005 | 89 | 137 | 0.9 | 3.5 | 0.00 | 0.00 | 0.00 | 71 | 1015.4 |
| 20260901184504 | 89 | 210 | 0.9 | 4.3 | 0.00 | 0.00 | 0.00 | 74 | 1015.5 |
| 20260901182506 | 89 | 355 | 0.9 | 4.3 | 0.00 | 0.00 | 0.00 | 75 | 1015.7 |
| 20260901181006 | 88 | 169 | 0.0 | 3.5 | 0.00 | 0.00 | 0.00 | 74 | 1015.5 |
| 20260901180504 | 88 | 299 | 1.7 | 7.0 | 0.00 | 0.00 | 0.00 | 75 | 1015.6 |
| 20260901180006 | 87 | 29 | 1.7 | 7.0 | 0.00 | 0.00 | 0.00 | 74 | 1015.6 |
| 20260901175504 | 87 | 188 | 0.0 | 3.5 | 0.00 | 0.00 | 0.00 | 76 | 1015.7 |
| 20260901175008 | 87 | 210 | 0.9 | 5.2 | 0.00 | 0.00 | 0.00 | 77 | 1015.8 |
| 20260901173507 | 86 | 196 | 0.9 | 4.3 | 0.00 | 0.00 | 0.00 | 78 | 1015.9 |
| 20260901173009 | 86 | 304 | 1.7 | 3.5 | 0.00 | 0.00 | 0.00 | 77 | 1016.0 |
| 20260901172505 | 85 | 161 | 0.9 | 2.6 | 0.00 | 0.00 | 0.00 | 81 | 1016.2 |
| 20260901172004 | 85 | 144 | 0.9 | 2.6 | 0.00 | 0.00 | 0.00 | 83 | 1016.2 |
| 20260901171007 | 82 | 325 | 0.0 | 0.0 | 0.00 | 0.00 | 0.00 | 89 | 1016.2 |
| 20260901170503 | 82 | 325 | 0.0 | 0.9 | 0.00 | 0.00 | 0.00 | 90 | 1016.1 |
| 20260901165004 | 81 | 325 | 0.0 | 0.0 | 0.00 | 0.00 | 0.00 | 90 | 1016.6 |
| 20260901164504 | 81 | 325 | 0.0 | 0.0 | 0.00 | 0.00 | 0.00 | 92 | 1016.6 |
| 20260901164010 | 81 | 325 | 0.0 | 0.0 | 0.00 | 0.00 | 0.00 | 93 | 1016.7 |
| 20260901163503 | 80 | 325 | 0.0 | 0.0 | 0.00 | 0.00 | 0.00 | 92 | 1016.7 |
| 20260901163005 | 80 | 325 | 0.0 | 0.0 | 0.00 | 0.00 | 0.00 | 92 | 1016.8 |
| 20260901162505 | 80 | 325 | 0.0 | 0.0 | 0.00 | 0.00 | 0.00 | 91 | 1017.0 |